Regional Weather Roundup
Issued by NWS

Home | Current Version | Previous Version | Text Only | Print | Product List | Glossary Off
Versions: 1 2 3 4 5 6 7 8 9 10 11 12 13 14 15 16 17 18 19 20 21 22 23 24 25 26 27 28 29 30 31 32 33 34 35 36 37 38 39 40 41 42 43 44 45 46 47 48 49 50

000
ASUS45 KTFX 010110
RWRMT
MONTANA REGIONAL WEATHER ROUNDUP
NATIONAL WEATHER SERVICE GREAT FALLS MT
700 PM MDT TUE JUN 30 2015

NOTE: "FAIR" INDICATES FEW OR NO CLOUDS BELOW 12000 FEET WITH NO
SIGNIFICANT WEATHER AND/OR OBSTRUCTIONS TO VISIBILITY.

MTZ001>007-043-010200-
WEST OF THE DIVIDE

CITY           SKY/WX    TMP DP  RH WIND       PRES   REMARKS
KALISPELL      CLEAR     91  43  18 W10       29.96S
MISSOULA       MOSUNNY   90  43  19 NW14      29.97F
BUTTE          SUNNY     85  43  22 NW17G24   30.11F
MULLAN PASS    SUNNY     74  44  34 VRB6      30.21F
DEER LODGE       N/A     84  46  26 NW13      30.09S
EUREKA           N/A     88  52  29 NW5       29.96S
HAMILTON         N/A     88  46  23 NW10      29.99S
$$

MTZ008-052>055-010200-
SOUTHWEST MONTANA

CITY           SKY/WX    TMP DP  RH WIND       PRES   REMARKS
BOZEMAN        SUNNY     89  49  25 N13       30.00S
DILLON         SUNNY     90  47  22 NE10      30.05F
W YELLOWSTONE  MOSUNNY   77  52  41 SW16      30.19S
$$

MTZ009-010-012-014-046-048-049-054-010200-
EAST SLOPES AND CENTRAL MONTANA

CITY           SKY/WX    TMP DP  RH WIND       PRES   REMARKS
CUT BANK       SUNNY     84  52  33 N15       30.00R
GREAT FALLS    SUNNY     90  41  18 NW14      29.96R
MALMSTROM AFB  SUNNY     89  39  16 N13G23    29.95S
HELENA         SUNNY     92  45  19 NW14G24   29.97S
$$

MTZ011-013-016-021-045-047-050-051-010200-
NORTH CENTRAL MONTANA

CITY           SKY/WX    TMP DP  RH WIND       PRES   REMARKS
HAVRE          SUNNY     85  53  33 NW14G29   29.91S HAZE
LEWISTOWN      SUNNY     86  46  24 N13       29.99R
CHINOOK          N/A     84  54  34 NW18G25   29.89R
FORT BENTON      N/A     88  50  27 NW14      29.92S
$$

MTZ017>020-022>027-061-062-010200-
NORTHEAST MONTANA

CITY           SKY/WX    TMP DP  RH WIND       PRES   REMARKS
JORDAN           N/A     89  51  27 NW22G32   29.85R
SIDNEY         MOSUNNY   75  66  73 NE10      29.83R
WOLF POINT     MOSUNNY   72  63  73 E13       29.82R HAZE
PLENTYWOOD       N/A     64  61  88 E14G20    29.90S
POPLAR           N/A     72  59  64 NE23G29   29.82R
$$

MTZ028>42-056>058-010200-
SOUTHCENTRAL AND SOUTHEAST MONTANA

CITY           SKY/WX    TMP DP  RH WIND       PRES   REMARKS
BAKER          SUNNY     86  53  32 NW20      29.84R
BILLINGS       MOSUNNY   93  43  17 N14G22    29.94S
LIVINGSTON     SUNNY     91  46  21 NW12      30.00F
MILES CITY     SUNNY     93  51  23 N18G30    29.81R HX  90
FORSYTH          N/A     93  39  15 NW20G31   29.83R
$$

REGIONAL REPORTS...DAKOTAS

CITY           SKY/WX    TMP DP  RH WIND       PRES   REMARKS
WILLISTON      MOSUNNY   68  58  70 E16G25    29.90R
MINOT          CLOUDY    67  63  87 CALM      29.91R FOG
DICKINSON      CLOUDY    70  59  68 E9        29.86R
CROSBY         CLOUDY    63  63 100 E7        29.93S FOG
BISMARCK       CLOUDY    71  63  75 E9        29.88F
GRAND FORKS    CLOUDY    72  58  61 SE5       29.90F
FARGO          CLOUDY    71  63  75 E5        29.89F
BUFFALO SD       N/A     83  67  58 S13       29.78S
RAPID CITY     SUNNY     82  66  58 NE5       29.89S
$$

REGIONAL REPORTS...WYOMING/IDAHO/WASHINGTON

CITY           SKY/WX    TMP DP  RH WIND       PRES   REMARKS
GILLETTE       MOSUNNY   86  53  32 NW10      29.96F
SHERIDAN       SUNNY     86  53  32 NW10      29.95S
BUFFALO WY     MOSUNNY   83  52  34 NW8       30.04F
CODY           MOSUNNY   81  48  32 N7        30.06S
YELLOWSTONE LA   N/A     74  48  39 VRB5      30.30F
IDAHO FALLS    PTSUNNY   79  60  52 E3        30.04F
SALMON         SUNNY     93  46  20 N8        29.91S
BOISE          SUNNY    100  43  14 NW13G21   29.88F HX  96
SPOKANE        MOSUNNY   93  43  17 NW10      29.95F
$$

REGIONAL REPORTS...ALBERTA

CITY           SKY/WX    TMP DP  RH WIND       PRES   REMARKS
EDMONTON       CLOUDY    70  55  60 CALM      29.96R
CALGARY        LGT RAIN  70  59  68 NE13      30.04S SMOKE
MEDICINE HAT   SUNNY     77  54  44 N13       29.95R SMOKE
CARDSTON         N/A    N/A N/A N/A N6          N/A
MILK RIVER       N/A     77  55  47 N14         N/A
ONEFOUR          N/A     79  50  36 N17G23      N/A
$$

REGIONAL REPORTS...SASKATCHEWAN

CITY           SKY/WX    TMP DP  RH WIND       PRES   REMARKS
SWIFT CURRENT  MOSUNNY   68  57  68 E16G28    29.94R HAZE
REGINA         CLOUDY    64  61  88 S2        29.93S SMOKE
CYPRESS HILLS    N/A     64  52  63 N10G17      N/A
VAL MARIE        N/A     77  55  47 N12         N/A
ROCKGLEN         N/A     66  59  77 NE5         N/A
ASSINIBOIA       N/A     72  57  60 SW3         N/A
$$



USA.gov is the U.S. government's official web portal to all federal, state and local government web resources and services.